Showing default

DIWATA 2B, 43678

Orbit data source: Space-Track

DIWATA 2B, 43678 is a Filipino payload satellite in SSO that was launched on Mon, 29 Oct 2018 UTC via an H-IIA 202 launch vehicle from the Tanegashima Space Center (TNSTA). Payload-class satellites include a variety of spacecraft equipped with specific instruments for various scientific and technological missions. These include communications satellites like Starlink; space stations such as the ISS; scientific satellites like the Hubble; Earth observation satellites from companies like Planet Labs, Umbra, and HawkEye 360; GPS; miniature CubeSats for education and research; and military/defense satellites.

Loading next visibility...
Identifier
43678, 2018-084H
Orbit
SSO
Country
Flag of RPRP
Related business
Manufacturer
UPD/HOKK
Mission
Operational Civil Imaging
Bus & Motor
DIWATA, Unknown motor
Mass
56 kg wet, 56 kg dry
Launch date (UTC)
2018-10-29 (8 years ago)
Launch vehicle
H-IIA 202
Launch site
Tanegashima Space Center (TNSTA)
Object type
Payload
Rocket body
Debris
Shape & HBR
Box + 2 Pan, 0.8 m
Radar Cross Section
0.514 m², Medium (>0.1 m² and < 1m²)

Expand to show TLE details & history
Last TLE update: 10 hours ago

TLE from 10 hours ago
0 DIWATA 2B
1 43678U 18084H   26123.95256792  .00003701  00000-0  30057-3 0  9997
2 43678  98.1071 318.2733 0012671 323.5658  36.4701 15.00235881409582
Epoch: 2026-05-03T22:51Z
TLE epoch observation values (Epoch: 2026-05-03T22:51:41.868Z)
Latitude
-0°
Longitude
113.50012°
Altitude
562.137 km
Speed
7.584 km/s
True Right ascension
21h 13m 05s
True Declination
0° 00' 00"
Sunlit
Object was in daylight at epoch
Visualization orbit readout
Latitude
Unknown
Longitude
Unknown
Altitude
Unknown
Speed
Unknown
Apparent Right ascension
Unknown
Apparent Declination
Unknown
Sunlit
N/A
Visualization observer readout
Local Sidereal Time
16:54:07
Azimuth
Unknown
Elevation
Unknown
Doppler factor
Unknown
Orbital elements
Apogee altitude
571.987 km
Perigee altitude
554.396 km
Semi-major axis
6,941.329 km
Eccentricity
0.00127
Inclination
98.1071°
RAAN
318.2733°
Arg. of periapsis
323.5658°
True anomaly
36.55652°
Mean anomaly
36.4701°
Eccentric anomaly
36.5133°
Mean motion
3.75301 °/min
Orbital period
95.92 mins
BSTAR
0.00030057
Loading maneuver chart data...
Computing Atmospheric mass density...
Loading historical data...
Loading historical data...
Loading historical data...
Loading historical data...
Loading historical data...
Loading historical data...
Loading historical data...

Documentation

Showing up to 5 results
|